TVS4308 LKPR-LSZH

Flight info

Callsign TVS4308
Flight time 1h 0m
Altitude 34000
Route BALTU DCT DONAD DCT OKG L984 KULOK Z715 ANELA DCT AMOSA DCT DKB DCT TEDGO/N0443F350 T724 RILAX
Aircraft A320/M-SDE3FGHIRWY/LB1

Departure

Time 2026-04-26 14:13
Airport Václav Havel Airport Prague (LKPR)

Arrival

Time 2026-04-26 15:14
Airport Zürich Airport (LSZH)
Time Latitude Longitude Altitude Speed Heading
2026-04-26 13:05 50.10387 14.26686 1174 ft 0 kts 34°
2026-04-26 13:19 50.10374 14.26671 1174 ft 3 kts 34°
2026-04-26 13:19 50.10359 14.26656 1176 ft 3 kts 34°
2026-04-26 13:19 50.10351 14.26648 1176 ft 3 kts 38°
2026-04-26 13:20 50.10340 14.26637 1177 ft 0 kts
2026-04-26 13:58 50.10357 14.26624 1178 ft 8 kts 326°
2026-04-26 13:59 50.10365 14.26611 1177 ft 0 kts 306°
2026-04-26 14:01 50.10392 14.26552 1178 ft 10 kts 304°
2026-04-26 14:01 50.10445 14.26450 1176 ft 15 kts 304°
2026-04-26 14:01 50.10508 14.26307 1173 ft 10 kts 303°
2026-04-26 14:01 50.10530 14.26254 1175 ft 3 kts 297°
2026-04-26 14:02 50.10540 14.26173 1177 ft 12 kts 268°
2026-04-26 14:02 50.10524 14.26038 1182 ft 11 kts 260°
2026-04-26 14:02 50.10520 14.25999 1183 ft 2 kts 259°
2026-04-26 14:02 50.10510 14.25984 1184 ft 1 kts 202°
2026-04-26 14:03 50.10494 14.25994 1184 ft 4 kts 150°
2026-04-26 14:03 50.10466 14.26047 1185 ft 8 kts 126°
2026-04-26 14:03 50.10421 14.26142 1187 ft 14 kts 126°
2026-04-26 14:03 50.10352 14.26281 1190 ft 18 kts 126°
2026-04-26 14:04 50.10266 14.26462 1194 ft 22 kts 127°
2026-04-26 14:04 50.10165 14.26673 1197 ft 26 kts 127°
2026-04-26 14:04 50.10072 14.26865 1201 ft 22 kts 126°
2026-04-26 14:04 50.09978 14.27059 1205 ft 17 kts 126°
2026-04-26 14:05 50.09896 14.27231 1204 ft 23 kts 126°
2026-04-26 14:05 50.09834 14.27345 1205 ft 2 kts 134°
2026-04-26 14:05 50.09811 14.27382 1205 ft 8 kts 134°
2026-04-26 14:05 50.09783 14.27426 1205 ft 0 kts 134°
2026-04-26 14:07 50.09772 14.27443 1205 ft 7 kts 136°
2026-04-26 14:07 50.09714 14.27532 1206 ft 15 kts 135°
2026-04-26 14:07 50.09621 14.27671 1208 ft 21 kts 136°
2026-04-26 14:07 50.09511 14.27836 1212 ft 23 kts 134°
2026-04-26 14:08 50.09435 14.27956 1216 ft 13 kts 136°
2026-04-26 14:08 50.09360 14.28069 1220 ft 17 kts 136°
2026-04-26 14:08 50.09265 14.28221 1225 ft 21 kts 135°
2026-04-26 14:08 50.09157 14.28277 1234 ft 15 kts 204°
2026-04-26 14:09 50.09142 14.28263 1243 ft 0 kts 214°
2026-04-26 14:10 50.09139 14.28260 1241 ft 0 kts 214°
2026-04-26 14:12 50.09133 14.28252 1247 ft 3 kts 223°
2026-04-26 14:12 50.09106 14.28211 1242 ft 9 kts 224°
2026-04-26 14:12 50.09071 14.28143 1234 ft 6 kts 263°
2026-04-26 14:12 50.09106 14.28048 1232 ft 14 kts 307°
2026-04-26 14:13 50.10014 14.26163 1693 ft 174 kts 308°
2026-04-26 14:13 50.10754 14.24576 2811 ft 182 kts 307°
2026-04-26 14:13 50.11456 14.23003 3888 ft 180 kts 307°
2026-04-26 14:14 50.12242 14.21354 4942 ft 200 kts 310°
2026-04-26 14:14 50.13151 14.19562 5915 ft 219 kts 310°
2026-04-26 14:14 50.14115 14.17651 6978 ft 235 kts 309°
2026-04-26 14:14 50.15119 14.15610 8341 ft 238 kts 308°
2026-04-26 14:15 50.16139 14.13500 9770 ft 242 kts 308°
2026-04-26 14:15 50.17194 14.11309 10779 ft 264 kts 308°
2026-04-26 14:15 50.18334 14.08934 11637 ft 288 kts 308°
2026-04-26 14:15 50.19587 14.06320 12455 ft 313 kts 308°
2026-04-26 14:16 50.20929 14.03515 13418 ft 328 kts 308°
2026-04-26 14:16 50.22007 14.00439 14597 ft 336 kts 291°
2026-04-26 14:16 50.22387 13.96702 15423 ft 346 kts 272°
2026-04-26 14:16 50.21950 13.92974 15878 ft 355 kts 257°
2026-04-26 14:17 50.21156 13.89252 16113 ft 357 kts 254°
2026-04-26 14:17 50.20330 13.85639 16246 ft 358 kts 254°
2026-04-26 14:17 50.19500 13.81967 16273 ft 358 kts 254°
2026-04-26 14:17 50.18685 13.78261 16270 ft 358 kts 255°
2026-04-26 14:18 50.17918 13.74689 16281 ft 359 kts 255°
2026-04-26 14:18 50.17091 13.70768 16861 ft 365 kts 255°
2026-04-26 14:18 50.16302 13.67034 18184 ft 364 kts 255°
2026-04-26 14:18 50.15782 13.64576 18896 ft 367 kts 255°
2026-04-26 14:19 50.14967 13.60729 19898 ft 371 kts 255°
2026-04-26 14:19 50.14162 13.56948 20865 ft 375 kts 255°
2026-04-26 14:19 50.13308 13.52949 21879 ft 380 kts 255°
2026-04-26 14:19 50.12194 13.47739 23159 ft 386 kts 254°
2026-04-26 14:20 50.11336 13.43741 24057 ft 391 kts 254°
2026-04-26 14:20 50.10750 13.41018 24617 ft 392 kts 254°
2026-04-26 14:20 50.09881 13.36973 25482 ft 394 kts 255°
2026-04-26 14:20 50.09193 13.32850 26268 ft 395 kts 261°
2026-04-26 14:21 50.08833 13.28583 27055 ft 396 kts 267°
2026-04-26 14:21 50.08724 13.24233 27781 ft 399 kts 269°
2026-04-26 14:21 50.08622 13.19792 28133 ft 402 kts 269°
2026-04-26 14:21 50.08512 13.15452 28241 ft 403 kts 269°
2026-04-26 14:22 50.08397 13.11092 28243 ft 402 kts 269°
2026-04-26 14:22 50.08245 13.05536 28242 ft 403 kts 268°
2026-04-26 14:23 50.08171 13.02851 28241 ft 403 kts 268°
2026-04-26 14:23 50.07937 12.94066 28239 ft 403 kts 269°
2026-04-26 14:24 50.07730 12.85396 28241 ft 404 kts 268°
2026-04-26 14:24 50.07505 12.76561 28241 ft 404 kts 268°
2026-04-26 14:25 50.07278 12.68022 28241 ft 405 kts 268°
2026-04-26 14:25 50.07038 12.59127 28249 ft 405 kts 268°
2026-04-26 14:26 50.06794 12.50326 28249 ft 405 kts 268°
2026-04-26 14:26 50.06543 12.41509 28250 ft 406 kts 268°
2026-04-26 14:27 50.06621 12.32686 28254 ft 406 kts 271°
2026-04-26 14:27 50.06747 12.23752 28259 ft 407 kts 271°
2026-04-26 14:28 50.06858 12.14941 28261 ft 408 kts 271°
2026-04-26 14:28 50.06947 12.07348 28265 ft 408 kts 271°
2026-04-26 14:29 50.07030 11.98391 28262 ft 408 kts 270°
2026-04-26 14:29 50.07101 11.89583 28264 ft 409 kts 270°
2026-04-26 14:30 50.07169 11.80753 28264 ft 409 kts 270°
2026-04-26 14:30 50.07231 11.71824 28264 ft 410 kts 270°
2026-04-26 14:30 50.07007 11.67338 28261 ft 410 kts 259°
2026-04-26 14:32 50.05639 11.61476 28263 ft 413 kts 242°
2026-04-26 14:32 50.03971 11.57841 28262 ft 416 kts 229°
2026-04-26 14:32 50.01934 11.54626 28258 ft 417 kts 227°
2026-04-26 14:33 49.97832 11.48220 28260 ft 417 kts 227°
2026-04-26 14:33 49.93688 11.41792 28260 ft 418 kts 225°
2026-04-26 14:34 49.89122 11.36289 28255 ft 420 kts 218°
2026-04-26 14:34 49.84328 11.30881 28256 ft 420 kts 218°
2026-04-26 14:35 49.79616 11.25559 28253 ft 420 kts 218°
2026-04-26 14:35 49.75157 11.19764 28249 ft 416 kts 228°
2026-04-26 14:36 49.71158 11.13312 28249 ft 416 kts 228°
2026-04-26 14:36 49.67162 11.06910 28246 ft 415 kts 227°
2026-04-26 14:37 49.63150 11.00510 28241 ft 415 kts 227°
2026-04-26 14:37 49.59731 10.95073 28241 ft 415 kts 227°
2026-04-26 14:38 49.55657 10.88607 28240 ft 414 kts 227°
2026-04-26 14:38 49.51636 10.82240 28244 ft 415 kts 227°
2026-04-26 14:39 49.47613 10.75885 28249 ft 414 kts 227°
2026-04-26 14:39 49.43584 10.69540 28251 ft 415 kts 227°
2026-04-26 14:40 49.39521 10.63154 28245 ft 415 kts 227°
2026-04-26 14:40 49.35483 10.56826 28243 ft 414 kts 227°
2026-04-26 14:41 49.31490 10.50582 28247 ft 414 kts 227°
2026-04-26 14:41 49.27387 10.44180 28252 ft 414 kts 227°
2026-04-26 14:42 49.23310 10.37839 28254 ft 414 kts 227°
2026-04-26 14:42 49.19209 10.31474 28257 ft 414 kts 227°
2026-04-26 14:43 49.15102 10.25117 28254 ft 414 kts 227°
2026-04-26 14:43 49.11399 10.18411 28248 ft 413 kts 233°
2026-04-26 14:44 49.07792 10.11542 28244 ft 413 kts 233°
2026-04-26 14:44 49.04163 10.04672 28242 ft 413 kts 233°
2026-04-26 14:45 49.00527 9.97817 28232 ft 414 kts 232°
2026-04-26 14:45 48.97418 9.91968 28231 ft 414 kts 232°
2026-04-26 14:46 48.93761 9.85105 28225 ft 414 kts 232°
2026-04-26 14:46 48.90132 9.78310 28234 ft 413 kts 232°
2026-04-26 14:47 48.86483 9.71496 28233 ft 414 kts 232°
2026-04-26 14:47 48.82772 9.64582 28230 ft 414 kts 232°
2026-04-26 14:48 48.79078 9.57720 28213 ft 414 kts 232°
2026-04-26 14:48 48.75405 9.50914 28212 ft 414 kts 232°
2026-04-26 14:49 48.71746 9.44151 28205 ft 414 kts 232°
2026-04-26 14:49 48.68077 9.37387 28210 ft 415 kts 232°
2026-04-26 14:50 48.64405 9.30634 28212 ft 415 kts 232°
2026-04-26 14:50 48.60362 9.24300 28212 ft 418 kts 222°
2026-04-26 14:51 48.55704 9.19041 28208 ft 419 kts 219°
2026-04-26 14:51 48.50995 9.13789 28201 ft 419 kts 219°
2026-04-26 14:52 48.46289 9.08539 28200 ft 419 kts 219°
2026-04-26 14:52 48.41578 9.03297 28200 ft 420 kts 219°
2026-04-26 14:53 48.36924 8.98130 28197 ft 420 kts 219°
2026-04-26 14:53 48.34536 8.95484 28196 ft 421 kts 219°
2026-04-26 14:54 48.33157 8.93958 28193 ft 421 kts 219°
2026-04-26 14:54 48.28414 8.88702 28195 ft 421 kts 219°
2026-04-26 14:55 48.23637 8.83383 28193 ft 421 kts 219°
2026-04-26 14:55 48.18894 8.78116 28191 ft 422 kts 219°
2026-04-26 14:56 48.14157 8.72901 28191 ft 422 kts 219°
2026-04-26 14:56 48.09468 8.67808 28191 ft 423 kts 218°
2026-04-26 14:57 48.04634 8.62564 28191 ft 423 kts 219°
2026-04-26 14:57 47.99662 8.57796 28193 ft 429 kts 205°
2026-04-26 14:57 47.96591 8.56513 28192 ft 435 kts 191°
2026-04-26 14:58 47.93700 8.56348 28193 ft 440 kts 178°
2026-04-26 14:58 47.90615 8.57220 28115 ft 443 kts 165°
2026-04-26 14:58 47.87775 8.59058 27651 ft 444 kts 152°
2026-04-26 14:58 47.85228 8.61781 26971 ft 443 kts 142°
2026-04-26 14:59 47.82840 8.64845 26210 ft 439 kts 141°
2026-04-26 14:59 47.80585 8.67792 25489 ft 435 kts 141°
2026-04-26 14:59 47.78306 8.70701 24771 ft 430 kts 142°
2026-04-26 14:59 47.76661 8.72752 24273 ft 427 kts 142°
2026-04-26 15:00 47.73654 8.76434 23286 ft 421 kts 143°
2026-04-26 15:00 47.71389 8.79174 22531 ft 417 kts 143°
2026-04-26 15:00 47.69229 8.81775 21815 ft 412 kts 143°
2026-04-26 15:00 47.66984 8.84475 21077 ft 408 kts 143°
2026-04-26 15:01 47.64784 8.87119 20372 ft 405 kts 142°
2026-04-26 15:01 47.62716 8.90068 19659 ft 403 kts 132°
2026-04-26 15:01 47.61057 8.93357 19003 ft 400 kts 123°
2026-04-26 15:01 47.59705 8.96993 18279 ft 397 kts 121°
2026-04-26 15:02 47.57988 9.00152 17610 ft 389 kts 139°
2026-04-26 15:02 47.56533 9.01738 17156 ft 383 kts 152°
2026-04-26 15:02 47.54083 9.03134 16500 ft 374 kts 171°
2026-04-26 15:02 47.51514 9.03271 15880 ft 365 kts 190°
2026-04-26 15:03 47.49147 9.02171 15278 ft 357 kts 210°
2026-04-26 15:03 47.47107 8.99788 14601 ft 349 kts 231°
2026-04-26 15:03 47.45964 8.96944 14030 ft 344 kts 250°
2026-04-26 15:03 47.45553 8.93550 13349 ft 341 kts 271°
2026-04-26 15:04 47.46041 8.90104 12682 ft 339 kts 292°
2026-04-26 15:04 47.47383 8.87144 11970 ft 340 kts 311°
2026-04-26 15:04 47.49098 8.84699 11346 ft 336 kts 316°
2026-04-26 15:04 47.50849 8.82417 10720 ft 334 kts 317°
2026-04-26 15:05 47.52032 8.80899 10257 ft 334 kts 317°
2026-04-26 15:06 47.53142 8.79476 9836 ft 333 kts 318°
2026-04-26 15:06 47.54907 8.77211 9224 ft 329 kts 318°
2026-04-26 15:06 47.56577 8.74921 8575 ft 326 kts 312°
2026-04-26 15:06 47.57878 8.72199 7936 ft 323 kts 297°
2026-04-26 15:07 47.59121 8.65839 6669 ft 319 kts 278°
2026-04-26 15:07 47.59359 8.62435 5974 ft 319 kts 275°
2026-04-26 15:07 47.59503 8.59203 5271 ft 320 kts 274°
2026-04-26 15:08 47.59631 8.55905 4832 ft 311 kts 274°
2026-04-26 15:08 47.59580 8.52779 4670 ft 296 kts 261°
2026-04-26 15:08 47.59283 8.49813 4546 ft 282 kts 272°
2026-04-26 15:08 47.59496 8.47919 4544 ft 268 kts 290°
2026-04-26 15:09 47.60571 8.44806 4514 ft 247 kts 291°
2026-04-26 15:09 47.60708 8.42332 4400 ft 236 kts 259°
2026-04-26 15:09 47.59978 8.40377 4270 ft 209 kts 217°
2026-04-26 15:09 47.58742 8.39764 4113 ft 177 kts 170°
2026-04-26 15:10 47.57742 8.40488 3959 ft 152 kts 137°
2026-04-26 15:10 47.57473 8.40829 3876 ft 150 kts 133°
2026-04-26 15:10 47.56300 8.42522 3606 ft 141 kts 133°
2026-04-26 15:10 47.55563 8.43539 3424 ft 144 kts 131°
2026-04-26 15:11 47.54818 8.44543 3228 ft 143 kts 132°
2026-04-26 15:11 47.54377 8.45156 3097 ft 139 kts 132°
2026-04-26 15:11 47.53665 8.46139 2931 ft 140 kts 132°
2026-04-26 15:11 47.52955 8.47122 2745 ft 138 kts 131°
2026-04-26 15:12 47.52255 8.48071 2547 ft 132 kts 133°
2026-04-26 15:12 47.51585 8.48989 2359 ft 131 kts 132°
2026-04-26 15:12 47.50955 8.49850 2185 ft 132 kts 133°
2026-04-26 15:12 47.50482 8.50503 2056 ft 131 kts 133°
2026-04-26 15:13 47.49841 8.51377 1887 ft 131 kts 134°
2026-04-26 15:13 47.49174 8.52289 1709 ft 131 kts 134°
2026-04-26 15:13 47.48495 8.53213 1522 ft 132 kts 134°
2026-04-26 15:13 47.47819 8.54151 1402 ft 120 kts 136°
2026-04-26 15:14 47.47362 8.54769 1407 ft 61 kts 137°
2026-04-26 15:14 47.47153 8.55051 1400 ft 29 kts 138°
2026-04-26 15:14 47.46999 8.55260 1394 ft 31 kts 137°
2026-04-26 15:14 47.46851 8.55461 1400 ft 24 kts 139°
2026-04-26 15:15 47.46719 8.55610 1397 ft 20 kts 152°
2026-04-26 15:15 47.46599 8.55677 1398 ft 19 kts 165°
2026-04-26 15:15 47.46507 8.55708 1397 ft 14 kts 168°
2026-04-26 15:15 47.46424 8.55736 1395 ft 12 kts 164°
2026-04-26 15:16 47.46397 8.55750 1403 ft 6 kts 156°
2026-04-26 15:16 47.46359 8.55786 1402 ft 0 kts 142°
2026-04-26 15:17 47.46359 8.55787 1403 ft 2 kts 136°
2026-04-26 15:18 47.46331 8.55827 1398 ft 9 kts 137°
2026-04-26 15:18 47.46271 8.55909 1401 ft 14 kts 137°
2026-04-26 15:18 47.46207 8.55994 1402 ft 8 kts 148°
2026-04-26 15:18 47.46136 8.55996 1399 ft 12 kts 187°
2026-04-26 15:19 47.46050 8.55985 1400 ft 10 kts 184°
2026-04-26 15:19 47.45965 8.55964 1400 ft 13 kts 205°
2026-04-26 15:19 47.45939 8.55872 1404 ft 10 kts 271°
2026-04-26 15:19 47.45957 8.55824 1401 ft 6 kts 344°
2026-04-26 15:20 47.46010 8.55829 1398 ft 9 kts
2026-04-26 15:20 47.46041 8.55834 1399 ft 0 kts